ONEWEB-0174

Last updated on Sun Apr 25 2021 00:02:03 GMT+0000 (Coordinated Universal Time)

1 48072U 21025AG 21114.58336806 -.01066383 00000-0 -34330-1 0 9992 2 48072 87.4222 339.2858 0013148 128.5329 108.1713 15.34827602 1799

Satellite not in orbit